User: anonymous   Login
Location: Unspecified
(0.0000°N, 0.0000°E)
Time: 11:50:27
(UTC+00:00)
Language:

Okean 3 - Orbit

View from above orbital plane
View from above orbital plane
View from above satellite
View from above satellite

Ground track
Ground track

The orbit data is extracted from the following two-line orbital elements,

1 21397U 91039A   19140.73065565  .00000200  00000-0  16732-4 0  9991
2 21397  82.5225 190.9033 0019121  50.8596 309.4320 14.92802112514584
Epoch (UTC): 20 May 2019 17:32:08
Eccentricity: 0.0019121
inclination: 82.5225°
perigee height: 576 km
apogee height: 602 km
right ascension of ascending node: 190.9033°
argument of perigee: 50.8596°
revolutions per day: 14.92802112
mean anomaly at epoch: 309.4320°
orbit number at epoch: 51458

The dashed part of the orbit path shows where the satellite is in the earth's shadow,  

DLR